| time (UTC) | temp F | wind direction | speed MPH | gust MPH | rain 1hr in | rain 24hr in | rain mn in | humidity % | barometer mb |
| 20260506032700 | 46 | 360 | 4.0 | 8.0 | 0.00 | 0.00 | 0.00 | 87 | 1010.4 |
| 20260506031801 | 46 | 360 | 4.0 | 9.0 | 0.00 | 0.00 | 0.00 | 87 | 1010.4 |
| 20260506030900 | 46 | 360 | 3.0 | 9.0 | 0.00 | 0.00 | 0.00 | 87 | 1010.4 |
| 20260506030001 | 46 | 360 | 3.0 | 8.0 | 0.00 | 0.00 | 0.00 | 87 | 1010.5 |
| 20260506025313 | 46 | 360 | 4.0 | 11.0 | 0.00 | 0.00 | 0.00 | 86 | 1010.6 |
| 20260506024415 | 47 | 360 | 4.0 | 10.0 | 0.00 | 0.00 | 0.00 | 86 | 1010.6 |
| 20260506023301 | 47 | 360 | 3.0 | 10.0 | 0.00 | 0.00 | 0.00 | 87 | 1010.7 |
| 20260506022400 | 47 | 360 | 4.0 | 11.0 | 0.00 | 0.00 | 0.00 | 87 | 1010.7 |
| 20260506021501 | 47 | 360 | 4.0 | 11.0 | 0.00 | 0.00 | 0.00 | 88 | 1010.8 |
| 20260506020601 | 47 | 360 | 4.0 | 10.0 | 0.00 | 0.00 | 0.00 | 89 | 1010.8 |
| 20260506015701 | 47 | 360 | 3.0 | 9.0 | 0.00 | 0.00 | 0.00 | 89 | 1010.8 |
| 20260506014800 | 47 | 360 | 2.0 | 6.0 | 0.00 | 0.00 | 0.00 | 89 | 1010.9 |
| 20260506013900 | 47 | 360 | 2.0 | 4.0 | 0.00 | 0.00 | 0.00 | 88 | 1010.8 |
| 20260506013214 | 48 | 360 | 2.0 | 6.0 | 0.00 | 0.00 | 0.00 | 88 | 1010.8 |
| 20260506012103 | 48 | 360 | 3.0 | 9.0 | 0.00 | 0.00 | 0.00 | 88 | 1010.9 |
| 20260506011200 | 48 | 360 | 4.0 | 10.0 | 0.00 | 0.00 | 0.00 | 89 | 1011.0 |
| 20260506010511 | 47 | 360 | 4.0 | 10.0 | 0.00 | 0.00 | 0.00 | 89 | 1011.0 |
| 20260506005614 | 47 | 360 | 4.0 | 8.0 | 0.00 | 0.00 | 0.00 | 89 | 1011.0 |
| 20260506004500 | 47 | 360 | 4.0 | 9.0 | 0.00 | 0.00 | 0.00 | 90 | 1011.1 |
| 20260506003603 | 47 | 360 | 4.0 | 8.0 | 0.00 | 0.00 | 0.00 | 89 | 1011.2 |
| 20260506002703 | 47 | 360 | 3.0 | 8.0 | 0.00 | 0.00 | 0.00 | 89 | 1011.2 |
| 20260506001801 | 47 | 360 | 3.0 | 9.0 | 0.00 | 0.00 | 0.00 | 89 | 1011.2 |
| 20260506000900 | 47 | 360 | 2.0 | 6.0 | 0.00 | 0.00 | 0.00 | 89 | 1011.3 |
| 20260506000212 | 47 | 351 | 3.0 | 7.0 | 0.00 | 0.00 | 0.00 | 88 | 1011.3 |
| 20260505235315 | 48 | 355 | 4.0 | 8.0 | 0.00 | 0.00 | 0.00 | 88 | 1011.2 |
| 20260505234200 | 48 | 351 | 4.0 | 8.0 | 0.00 | 0.00 | 0.00 | 88 | 1011.2 |
| 20260505233301 | 48 | 357 | 4.0 | 8.0 | 0.00 | 0.00 | 0.00 | 88 | 1011.2 |
| 20260505232617 | 48 | 360 | 4.0 | 8.0 | 0.00 | 0.00 | 0.00 | 88 | 1011.3 |
| 20260505231500 | 48 | 12 | 3.0 | 6.0 | 0.00 | 0.00 | 0.00 | 87 | 1011.4 |
| 20260505230600 | 48 | 10 | 3.0 | 8.0 | 0.00 | 0.00 | 0.00 | 87 | 1011.5 |
| 20260505225703 | 48 | 12 | 3.0 | 8.0 | 0.00 | 0.00 | 0.00 | 86 | 1011.5 |
| 20260505224801 | 49 | 17 | 3.0 | 8.0 | 0.00 | 0.00 | 0.00 | 86 | 1011.5 |
| 20260505224114 | 49 | 20 | 3.0 | 9.0 | 0.00 | 0.00 | 0.00 | 85 | 1011.5 |
| 20260505223001 | 49 | 12 | 2.0 | 7.0 | 0.00 | 0.00 | 0.00 | 85 | 1011.6 |
| 20260505222100 | 49 | 11 | 4.0 | 8.0 | 0.00 | 0.00 | 0.00 | 85 | 1011.6 |
| 20260505221201 | 49 | 8 | 4.0 | 9.0 | 0.00 | 0.00 | 0.00 | 84 | 1011.5 |
| 20260505220301 | 49 | 9 | 3.0 | 9.0 | 0.00 | 0.00 | 0.00 | 84 | 1011.4 |
| 20260505215400 | 50 | 6 | 3.0 | 7.0 | 0.00 | 0.00 | 0.00 | 84 | 1011.4 |
| 20260505214713 | 50 | 7 | 3.0 | 8.0 | 0.00 | 0.00 | 0.00 | 83 | 1011.4 |
| 20260505213600 | 50 | 17 | 3.0 | 8.0 | 0.00 | 0.00 | 0.00 | 83 | 1011.5 |
| 20260505212700 | 50 | 12 | 3.0 | 10.0 | 0.00 | 0.00 | 0.00 | 83 | 1011.5 |
| 20260505212010 | 51 | 7 | 3.0 | 8.0 | 0.00 | 0.00 | 0.00 | 83 | 1011.5 |
| 20260505210901 | 51 | 23 | 3.0 | 8.0 | 0.00 | 0.00 | 0.00 | 83 | 1011.5 |
| 20260505210001 | 51 | 19 | 3.0 | 8.0 | 0.00 | 0.00 | 0.00 | 83 | 1011.6 |
| 20260505205100 | 51 | 14 | 4.0 | 8.0 | 0.00 | 0.00 | 0.00 | 82 | 1011.5 |
| 20260505204201 | 51 | 15 | 3.0 | 7.0 | 0.00 | 0.00 | 0.00 | 82 | 1011.4 |
| 20260505203301 | 51 | 18 | 3.0 | 7.0 | 0.00 | 0.00 | 0.00 | 82 | 1011.4 |
| 20260505202400 | 51 | 32 | 4.0 | 10.0 | 0.00 | 0.00 | 0.00 | 81 | 1011.4 |
| 20260505201500 | 51 | 33 | 2.0 | 5.0 | 0.00 | 0.00 | 0.00 | 81 | 1011.4 |
| 20260505200601 | 52 | 37 | 3.0 | 5.0 | 0.00 | 0.00 | 0.00 | 80 | 1011.3 |
| 20260505195700 | 52 | 43 | 2.0 | 6.0 | 0.00 | 0.00 | 0.00 | 79 | 1011.2 |
| 20260505194801 | 52 | 43 | 2.0 | 4.0 | 0.00 | 0.00 | 0.00 | 78 | 1011.1 |
| 20260505193904 | 52 | 51 | 3.0 | 7.0 | 0.00 | 0.00 | 0.00 | 77 | 1011.0 |
| 20260505193003 | 53 | 50 | 3.0 | 9.0 | 0.00 | 0.00 | 0.00 | 76 | 1010.9 |
| 20260505192315 | 53 | 56 | 4.0 | 8.0 | 0.00 | 0.00 | 0.00 | 75 | 1010.8 |
| 20260505191413 | 53 | 61 | 4.0 | 8.0 | 0.00 | 0.00 | 0.00 | 74 | 1010.8 |
| 20260505190301 | 54 | 65 | 5.0 | 10.0 | 0.00 | 0.00 | 0.00 | 72 | 1010.7 |
| 20260505185612 | 54 | 65 | 4.0 | 9.0 | 0.00 | 0.00 | 0.00 | 71 | 1010.7 |
| 20260505184501 | 55 | 64 | 4.0 | 8.0 | 0.00 | 0.00 | 0.00 | 70 | 1010.7 |
| 20260505183603 | 55 | 63 | 4.0 | 9.0 | 0.00 | 0.00 | 0.00 | 69 | 1010.7 |
| 20260505182701 | 55 | 62 | 4.0 | 10.0 | 0.00 | 0.00 | 0.00 | 68 | 1010.6 |
| 20260505181800 | 56 | 63 | 5.0 | 10.0 | 0.00 | 0.00 | 0.00 | 67 | 1010.6 |
| 20260505180900 | 56 | 62 | 4.0 | 10.0 | 0.00 | 0.00 | 0.00 | 67 | 1010.6 |
| 20260505180000 | 56 | 56 | 4.0 | 10.0 | 0.00 | 0.00 | 0.00 | 68 | 1010.5 |
| 20260505175100 | 57 | 60 | 5.0 | 11.0 | 0.00 | 0.00 | 0.00 | 67 | 1010.6 |
| 20260505174201 | 57 | 64 | 5.0 | 12.0 | 0.00 | 0.00 | 0.00 | 66 | 1010.5 |
| 20260505173303 | 58 | 60 | 5.0 | 10.0 | 0.00 | 0.00 | 0.00 | 66 | 1010.6 |
| 20260505172404 | 58 | 57 | 6.0 | 11.0 | 0.00 | 0.00 | 0.00 | 64 | 1010.5 |
| 20260505171713 | 58 | 58 | 6.0 | 11.0 | 0.00 | 0.00 | 0.00 | 65 | 1010.6 |
| 20260505170600 | 58 | 68 | 6.0 | 11.0 | 0.00 | 0.00 | 0.00 | 65 | 1010.6 |
| 20260505165701 | 59 | 74 | 5.0 | 12.0 | 0.00 | 0.00 | 0.00 | 64 | 1010.5 |
| 20260505165015 | 58 | 74 | 5.0 | 13.0 | 0.00 | 0.00 | 0.00 | 64 | 1010.7 |
| 20260505163901 | 58 | 85 | 6.0 | 12.0 | 0.00 | 0.00 | 0.00 | 66 | 1010.7 |
| 20260505163001 | 58 | 81 | 5.0 | 11.0 | 0.00 | 0.00 | 0.00 | 68 | 1010.6 |
| 20260505162312 | 57 | 89 | 6.0 | 11.0 | 0.00 | 0.00 | 0.00 | 69 | 1010.6 |
| 20260505161200 | 58 | 95 | 4.0 | 11.0 | 0.00 | 0.00 | 0.00 | 66 | 1010.6 |
| 20260505160512 | 58 | 98 | 5.0 | 10.0 | 0.00 | 0.00 | 0.00 | 67 | 1010.6 |
| 20260505152700 | 60 | 92 | 6.0 | 12.0 | 0.00 | 0.00 | 0.00 | 60 | 1010.8 |
| 20260505151800 | 60 | 97 | 6.0 | 12.0 | 0.00 | 0.00 | 0.00 | 59 | 1010.8 |
| 20260505150900 | 60 | 90 | 6.0 | 11.0 | 0.00 | 0.00 | 0.00 | 60 | 1010.9 |
| 20260505150213 | 60 | 97 | 5.0 | 11.0 | 0.00 | 0.00 | 0.00 | 61 | 1010.9 |
| 20260505140603 | 60 | 94 | 7.0 | 13.0 | 0.00 | 0.00 | 0.00 | 63 | 1011.2 |
| 20260505130300 | 63 | 94 | 7.0 | 12.0 | 0.00 | 0.00 | 0.00 | 62 | 1011.2 |
| 20260505124713 | 63 | 92 | 7.0 | 13.0 | 0.00 | 0.00 | 0.00 | 60 | 1011.1 |
| 20260505123603 | 63 | 96 | 6.0 | 14.0 | 0.00 | 0.00 | 0.00 | 61 | 1011.1 |
| 20260505122701 | 62 | 92 | 7.0 | 14.0 | 0.00 | 0.00 | 0.00 | 61 | 1011.2 |
| 20260505121800 | 63 | 95 | 6.0 | 12.0 | 0.00 | 0.00 | 0.00 | 61 | 1011.2 |
| 20260505120905 | 64 | 90 | 5.0 | 13.0 | 0.00 | 0.00 | 0.00 | 60 | 1011.1 |
| 20260505120003 | 64 | 97 | 6.0 | 12.0 | 0.00 | 0.00 | 0.00 | 58 | 1011.2 |
| 20260505115100 | 64 | 92 | 5.0 | 12.0 | 0.00 | 0.00 | 0.00 | 56 | 1011.3 |
| 20260505114200 | 64 | 97 | 5.0 | 9.0 | 0.00 | 0.00 | 0.00 | 55 | 1011.3 |
| 20260505113300 | 64 | 91 | 6.0 | 14.0 | 0.00 | 0.00 | 0.00 | 54 | 1011.3 |
| 20260505112401 | 64 | 90 | 7.0 | 12.0 | 0.00 | 0.00 | 0.00 | 54 | 1011.3 |
| 20260505111501 | 64 | 95 | 7.0 | 14.0 | 0.00 | 0.00 | 0.00 | 53 | 1011.4 |
| 20260505110600 | 64 | 91 | 7.0 | 13.0 | 0.00 | 0.00 | 0.00 | 52 | 1011.4 |
| 20260505101200 | 64 | 79 | 4.0 | 10.0 | 0.00 | 0.00 | 0.00 | 51 | 1011.6 |
| 20260505100302 | 63 | 56 | 3.0 | 11.0 | 0.00 | 0.00 | 0.00 | 51 | 1011.6 |
| 20260505095613 | 63 | 46 | 4.0 | 11.0 | 0.00 | 0.00 | 0.00 | 50 | 1011.6 |
| 20260505094500 | 63 | 72 | 4.0 | 10.0 | 0.00 | 0.00 | 0.00 | 52 | 1011.7 |
| 20260505093601 | 62 | 67 | 3.0 | 7.0 | 0.00 | 0.00 | 0.00 | 56 | 1011.7 |
| 20260505092701 | 62 | 61 | 4.0 | 10.0 | 0.00 | 0.00 | 0.00 | 58 | 1011.6 |
| 20260505091800 | 61 | 54 | 4.0 | 9.0 | 0.00 | 0.00 | 0.00 | 59 | 1011.6 |
| 20260505090900 | 61 | 54 | 3.0 | 9.0 | 0.00 | 0.00 | 0.00 | 61 | 1011.6 |
| 20260505090212 | 60 | 33 | 3.0 | 8.0 | 0.00 | 0.00 | 0.00 | 63 | 1011.7 |
| 20260505085100 | 60 | 65 | 4.0 | 9.0 | 0.00 | 0.00 | 0.00 | 61 | 1011.8 |
| 20260505084201 | 59 | 56 | 3.0 | 9.0 | 0.00 | 0.00 | 0.00 | 64 | 1011.8 |
| 20260505083514 | 58 | 58 | 3.0 | 10.0 | 0.00 | 0.00 | 0.00 | 67 | 1011.9 |
| 20260505082611 | 58 | 47 | 4.0 | 9.0 | 0.00 | 0.00 | 0.00 | 66 | 1011.8 |
| 20260505081500 | 57 | 36 | 4.0 | 9.0 | 0.00 | 0.00 | 0.00 | 68 | 1011.8 |
| 20260505080600 | 57 | 34 | 4.0 | 9.0 | 0.00 | 0.00 | 0.00 | 69 | 1011.9 |
| 20260505075703 | 57 | 49 | 5.0 | 9.0 | 0.00 | 0.00 | 0.00 | 70 | 1011.7 |
| 20260505074800 | 56 | 35 | 4.0 | 9.0 | 0.00 | 0.00 | 0.00 | 72 | 1011.7 |
| 20260505073901 | 55 | 38 | 5.0 | 8.0 | 0.00 | 0.00 | 0.00 | 74 | 1011.7 |
| 20260505073003 | 54 | 39 | 5.0 | 11.0 | 0.00 | 0.00 | 0.00 | 74 | 1011.7 |
| 20260505072100 | 54 | 33 | 6.0 | 10.0 | 0.00 | 0.00 | 0.00 | 75 | 1011.8 |
| 20260505071203 | 53 | 46 | 4.0 | 10.0 | 0.00 | 0.00 | 0.00 | 77 | 1012.0 |
| 20260505070301 | 52 | 24 | 4.0 | 10.0 | 0.00 | 0.00 | 0.00 | 78 | 1012.1 |
| 20260505065400 | 52 | 40 | 4.0 | 9.0 | 0.00 | 0.00 | 0.00 | 79 | 1012.1 |
| 20260505064501 | 52 | 34 | 4.0 | 8.0 | 0.00 | 0.00 | 0.00 | 82 | 1012.1 |
| 20260505063814 | 51 | 32 | 5.0 | 10.0 | 0.00 | 0.00 | 0.00 | 82 | 1012.2 |
| 20260505062701 | 50 | 35 | 4.0 | 9.0 | 0.00 | 0.00 | 0.00 | 85 | 1012.2 |
| 20260505061801 | 49 | 33 | 4.0 | 8.0 | 0.00 | 0.00 | 0.00 | 87 | 1012.2 |
| 20260505060901 | 48 | 44 | 4.0 | 8.0 | 0.00 | 0.00 | 0.00 | 90 | 1012.3 |
| 20260505060001 | 47 | 47 | 4.0 | 8.0 | 0.00 | 0.00 | 0.00 | 91 | 1012.3 |
| 20260505055103 | 46 | 55 | 3.0 | 6.0 | 0.00 | 0.00 | 0.00 | 92 | 1012.3 |
| 20260505054201 | 46 | 39 | 2.0 | 5.0 | 0.00 | 0.00 | 0.00 | 92 | 1012.3 |
| 20260505053259 | 46 | 18 | 1.0 | 5.0 | 0.00 | 0.00 | 0.00 | 93 | 1012.3 |
| 20260505052400 | 45 | 19 | 2.0 | 5.0 | 0.00 | 0.00 | 0.00 | 93 | 1012.2 |
| 20260505051501 | 45 | 22 | 2.0 | 4.0 | 0.00 | 0.00 | 0.00 | 93 | 1012.3 |
| 20260505050813 | 45 | 20 | 1.0 | 3.0 | 0.00 | 0.00 | 0.00 | 92 | 1012.3 |
| 20260505041200 | 46 | 19 | 2.0 | 5.0 | 0.00 | 0.00 | 0.00 | 92 | 1012.4 |
| 20260505040514 | 46 | 13 | 1.0 | 3.0 | 0.00 | 0.00 | 0.00 | 92 | 1012.4 |
| 20260505035400 | 46 | 14 | 1.0 | 3.0 | 0.00 | 0.00 | 0.00 | 92 | 1012.6 |
| 20260505034501 | 45 | 8 | 0.0 | 2.0 | 0.00 | 0.00 | 0.00 | 92 | 1012.6 |
| 20260505033603 | 45 | 1 | 0.0 | 2.0 | 0.00 | 0.00 | 0.00 | 92 | 1012.6 |